Regional Weather Roundup
Issued by NWS

Home | Current Version | Previous Version | Text Only | Print | Product List | Glossary On
Versions: 1 2 3 4 5 6 7 8 9 10 11 12 13 14 15 16 17 18 19 20 21 22 23 24 25 26 27 28 29 30 31 32 33 34 35 36 37 38 39 40 41 42 43 44 45 46 47 48 49 50
000
ASUS43 KMKX 200420
RWRWI

WISCONSIN REGIONAL WEATHER ROUNDUP
NATIONAL WEATHER SERVICE MILWAUKEE/SULLIVAN WI
1000 PM CST MON FEB 19 2018

NOTE: "FAIR" INDICATES FEW OR NO CLOUDS BELOW 12,000 FEET WITH NO
SIGNIFICANT WEATHER AND/OR OBSTRUCTIONS TO VISIBILITY.

WIZ001-002-006>008-014>016-023>028-200500-
NORTHWEST WISCONSIN

CITY           SKY/WX    TMP DP  RH WIND       PRES   REMARKS
SUPERIOR ARPT  LGT SNOW  17  14  90 NE17G26   30.03F WCI   1
ASHLAND        LGT SNOW  19  17  92 NE18G31   30.03F FOG     WCI   4
HAYWARD        MIX PCPN  18  14  84 NE14      29.93F WCI   4
SIREN          MIX PCPN  18  15  89 NE10      29.95S WCI   6
CUMBERLAND     CLOUDY    18  16  93 NE12      29.90R FOG     WCI   5
RICE LAKE      CLOUDY    19  17  93 NE10      29.92S FOG     WCI   7
CHETEK         CLOUDY    19  17  93 NE8       29.90S FOG     WCI   9
LADYSMITH      CLOUDY    19  17  92 NE12G17   29.90F WCI   7
EAU CLAIRE     CLOUDY    22  20  92 NE15G22   29.86F WCI   9
MENOMONIE      CLOUDY    22  20  92 N8        29.89R WCI  13
NEW RICHMOND   CLOUDY    19  16  88 NE10      29.90S WCI   8
OSCEOLA        CLOUDY    20  18  91 NE10      29.96R WCI   8
$$

WIZ003>005-009-010-017-018-200500-
NORTH CENTRAL WISCONSIN

CITY           SKY/WX    TMP DP  RH WIND       PRES   REMARKS
MANITOWISH WTR CLOUDY    16  16 100 NE8       29.90S FOG     WCI   5
ARBOR VITAE    CLOUDY    20  18  91 NE7       29.88S FOG     WCI  11
WOODRUFF       CLOUDY    20  18  91 NE7       29.88S FOG     WCI  11
RHINELANDER    CLOUDY    21  19  92 E7        29.86F FOG     WCI  12
EAGLE RIVER    MIX PCPN  19  19  98 NE9       29.87F WCI   9
LAND O LAKES   CLOUDY    19  18  93 NE7       29.90F FOG     WCI  10
PHILLIPS       CLOUDY    17  17  98 N6        29.88S WCI   9
TOMAHAWK       CLOUDY    20  18  93 NE7       29.87F FOG     WCI  11
MEDFORD        CLOUDY    21  19  93 NE12      29.82F FOG     WCI   9
MERRILL        CLOUDY    23  22  96 NE10      29.86F FOG     WCI  12
$$

WIZ029-030-035-036-043>047-200500-
CENTRAL WISCONSIN

CITY           SKY/WX    TMP DP  RH WIND       PRES   REMARKS
WAUSAU         CLOUDY    26  24  92 NE8       29.83S FOG     WCI  18
MOSINEE        CLOUDY    25  25 100 NE7       29.84S FOG     WCI  17
MARSHFIELD     CLOUDY    26  25  96 NE13      29.81S FOG     WCI  15
STEVENS POINT  MIX PCPN  25  25 100 NE8       29.83S WCI  16
WAUPACA        CLOUDY    31  29  91 NE3       29.84S FOG
WAUTOMA        CLOUDY    29  28  96 NE9       29.82R FOG     WCI  20
WISC RAPIDS    CLOUDY    27  24  89 E8        29.84R FOG     WCI  19
CAMP DOUGLAS   FRZ DRZL  30  30 100 CALM      29.80F FOG
$$

WIZ011>013-019>022-031-037>040-048>050-200500-
NORTHEAST WISCONSIN

CITY           SKY/WX    TMP DP  RH WIND       PRES   REMARKS
ANTIGO         CLOUDY    25  24  99 NE10      29.84S FOG     WCI  14
SHAWANO        CLOUDY    29  27  92 NE10      29.86S FOG     WCI  19
OCONTO         CLOUDY    28  27  95 NE7       29.86F WCI  21
STURGEON BAY   MIX PCPN  32  30  93 NE9       29.85  FOG     WCI  24
GREEN BAY      CLOUDY    28  25  88 NE18      29.84S FOG     WCI  15
MANITOWOC      MIX PCPN  34  34 100 VRB5      29.82F FOG     WCI  30
APPLETON       CLOUDY    28  28 100 NE12      29.80S FOG     WCI  18
CLINTONVILLE   CLOUDY    28  26  93 NE9       29.85S FOG     WCI  19
OSHKOSH        CLOUDY    30  30 100 NE8       29.80F FOG     WCI  22
$$

WIZ032>034-041-042-053>061-200500-
SOUTHWEST WISCONSIN

CITY           SKY/WX    TMP DP  RH WIND       PRES   REMARKS
LA CROSSE      CLOUDY    33  31  92 N6        29.81R FOG     WCI  28
SPARTA         CLOUDY    31  30  98 E6        29.82S FOG     WCI  25
VIROQUA        CLOUDY    32  32 100 E9        29.77R WCI  24
BOSCOBEL       FOG       36  36 100 CALM      29.78R VSB 1
PRAIRIE DU CHI FOG       35  34  96 CALM      29.77R VSB 1/4
PLATTEVILLE    CLOUDY    37  37 100 S3        29.75S VSB 1/4
$$

WIZ056-057-062-063-064-067-068-200500-
SOUTH CENTRAL WISCONSIN

CITY           SKY/WX    TMP DP  RH WIND       PRES   REMARKS
REEDSBURG      CLOUDY    30  30 100 NE5       29.79S FOG     WCI  25
BARABOO/DELLS  CLOUDY    31  30  98 NE7       29.78S FOG     WCI  24
LONE ROCK      CLOUDY    35  35 100 E5        29.77F FOG     WCI  31
MINERAL POINT  LGT RAIN  37  37 100 CALM      29.75S VSB 1/4
MADISON        DRIZZLE   34  34 100 N6        29.78R FOG     WCI  29
MIDDLETON      CLOUDY    35  35 100 N5        29.77S WCI  31
WATERTOWN      DRIZZLE   36  36 100 E5        29.76S WCI  32
MONROE         DRZL/FOG  43  41  93 S9        29.75R VSB 1/4
JANESVILLE     FOG       37  37 100 NW3       29.76R VSB 1/2
$$

WIZ051-052-058>065-066-070>072-200500-
SOUTHEAST WISCONSIN

CITY           SKY/WX    TMP DP  RH WIND       PRES   REMARKS
MILWAUKEE      LGT RAIN  37  37 100 CALM      29.78F FOG
WAUKESHA       DRIZZLE   34  32  93 E3        29.78F
MILWAUKEE/TIMM DRIZZLE   34  32  93 CALM      29.80S
RACINE         LGT RAIN  36  36 100 CALM      29.80F VSB 1/4
BURLINGTON     FOG       36  35  97 CALM      29.77F VSB 1/4
KENOSHA        LGT RAIN  44  41  89 S7        29.78F VSB 1/4
FOND DU LAC    LGT RAIN  34  31  88 NE8       29.80S FOG     WCI  27
SHEBOYGAN      CLOUDY    34  34 100 NE10      29.80S FOG     WCI  26
WEST BEND      LGT RAIN  34  34 100 NE3       29.79F
JUNEAU         RAIN      33  33  99 NE7       29.78S WCI  27
$$

LSZ147-162-200500-
LAKE SUPERIOR

STATION/POSITION TIME  TEMP    WIND        PRES    WAVE
                       AIR SEA DIR/SP/G            HT/PER
                 (UTC) (F)     (DEG/KT/KT) (MB)    (FT/S)
DEVILS ISLAND    0400   18      40/ 32/ 37 1019.4F
SAXON HARBOR     0340   19      50/ 25/ 30 1015.9F
$$

LMZ867-665-643>646-200500-
LAKE MICHIGAN

STATION/POSITION TIME  TEMP    WIND        PRES    WAVE
                       AIR SEA DIR/SP/G            HT/PER
                 (UTC) (F)     (DEG/KT/KT) (MB)    (FT/S)
NORTHPORT PIER   0344   33                 1011.9F
KEWAUNEE LAKESHO 0354   35      40/ 12/ 17 1009.3F
SHEBOYGAN LAKESH 0400   35      10/ 10/ 12 1009.4F
PORT WASHINGTON  0340   37     330/  3/ 10 1010.2F
MILWAUKEE LAKESH 0400   36     340/  1/  2   N/A
KENOSHA   LAKESH 0400   35        CALM     1009.1
$$

TC  - TEMPERATURE IN CELSIUS
VSB - VISIBILITY IN STATUTE MILES
WCI - WIND CHILL INDEX
HX  - HEAT INDEX




USA.gov is the U.S. government's official web portal to all federal, state and local government web resources and services.